Terminal Aerodrome Forecast
Issued by NWS Tiyan, Guam

Home | Current Version | Previous Version | Text Only | Print | Product List | Glossary On
Versions: 1 2 3 4 5 6 7 8 9 10 11 12 13 14 15
000
FTPQ31 PGUM 301731
TAFGUM
TAF
PGUM 301731Z 3018/3124 VRB04KT P6SM FEW020 FEW040
     FM310200 11007KT P6SM VCSH SCT018 SCT040=

USA.gov is the U.S. government's official web portal to all federal, state and local government web resources and services.